STARLINK-5247 (54203 NORAD) Tracking and Keplerian Element Data

This shows tracking and keplerian element data for the satellite.

Feedback or suggestion? Click here.




ElementValue
Catalog54203
NameSTARLINK-5247
Epoch Orbit402
Epoch Day324.91667824
Epoch Year2022
RAAN25.728
Inclination53.2173
Eccentricity0.0002787
Argument of Perigee9.2342
Mean Anonmoly297.659
Mean Motion15.73166139
Decay Rate8.057E-05
L11 54203U 22141AY 22324.91667824 .00008057 00000+0 61861-4 0 9995
L22 54203 53.2173 25.7280 0002787 9.2342 297.6590 15.73166139 4021



Live tracking and technical data element details for STARLINK-5247 (NORAD 54203). STARLINK-5247 can be tracked NOW for your location showing map with azimuth and elevation plus other details from your city location.







IsCatalogInMostPopularTable: catalog: 54203, numindb: 6
Update: records affected: 1



GetName: 54203 STARLINK-5247

Hit Count: updated at: Sun, 04 Dec 2022 22:33:12 GMT